[[{"header":{"parameterUnit":"m.s-1","parameterCategory":1,"la1":30.2991,"la2":30.254,"lo1":-89.0895,"lo2":-89.0444,"dy":0.0017,"dx":0.0017,"nx":28,"ny":28,"refTime":"2024-09-26T03:00:00:Z","depth":0,"parameterNumber":2,"parameterNumberName":"U-component_of_WINDS"},"data":[0,0,0,0,0,0,0,0,0,0,0,0,0,0,0,0,0,0,0,0,0,0,0,0,0,0,0,0,0,0,0,0,0,0,0,0,0,0,0,0,0,0,0,0,0,0,0,0,0,0,0,0,0,0,0,0,0,0,-1.4012,-1.4014,0,-1.4203,-1.4205,-1.4207,-1.4245,-1.4243,-1.4242,-1.424,-1.4448,-1.4455,-1.4462,0,0,0,0,0,0,0,0,0,0,0,0,0,-1.3691,-1.3696,-1.4012,-1.4014,-1.4016,-1.4202,-1.4205,-1.4208,-1.4245,-1.4243,-1.4241,-1.4239,-1.4446,-1.4454,-1.4463,0,0,0,0,0,0,0,0,0,0,0,0,0,-1.3851,-1.3698,-1.4011,-1.4057,-1.4063,-1.4202,-1.4205,-1.4208,-1.4245,-1.4243,-1.4241,-1.4239,-1.4443,-1.4453,-1.4464,-1.4574,0,0,-1.4496,-1.45,0,0,0,0,0,0,0,0,-1.3842,-1.3863,-1.4048,-1.4054,-1.4061,-1.4197,-1.4168,-1.4332,-1.4246,-1.4177,-1.424,-1.4237,-1.4368,-1.4384,-1.4425,-1.4584,-1.4593,-1.4497,-1.4503,-1.4508,-1.451,0,0,0,0,0,0,0,-1.3831,-1.3855,-1.4088,-1.4051,-1.4059,-1.4072,-1.4092,-1.4199,-1.4283,-1.4182,-1.4185,-1.4207,-1.4371,-1.4415,-1.443,-1.4596,-1.4496,-1.4506,-1.4512,-1.4516,-1.4855,-1.4858,0,0,0,0,0,0,-1.381,-1.3845,-1.4082,-1.4093,-1.3943,-1.4079,-1.4102,-1.4156,-1.4282,-1.4298,-1.4209,-1.4208,-1.4398,-1.4418,-1.4438,-1.4575,-1.4507,-1.4517,-1.4523,-1.4853,-1.4856,-1.4859,0,0,0,0,0,0,-1.3803,-1.383,-1.4074,-1.397,-1.4002,-1.4087,-1.4148,-1.4161,-1.4205,-1.4301,-1.4318,-1.4238,-1.4397,-1.4423,-1.4539,-1.4583,-1.4522,-1.4531,-1.485,-1.4854,-1.4858,-1.4851,0,0,0,0,0,0,-1.3793,-1.3828,-1.3868,-1.3971,-1.4007,-1.4168,-1.415,-1.4166,-1.4222,-1.4223,-1.4333,-1.4349,-1.4398,-1.4523,-1.4549,-1.4596,-1.454,-1.4846,-1.4851,-1.4856,-1.4847,-1.4854,-1.486,0,0,0,0,0,-1.3782,-1.3861,-1.387,-1.3898,-1.4059,-1.4171,-1.4192,-1.4242,-1.4225,-1.4268,-1.433,-1.4346,-1.4574,-1.4535,-1.4565,-1.4615,-1.4844,-1.485,-1.4856,-1.4845,-1.4853,-1.4859,0,0,0,0,0,0,-1.3766,-1.3875,-1.3886,-1.4,-1.4075,-1.4177,-1.4232,-1.4249,-1.4334,-1.4332,-1.4394,-1.4419,-1.4532,-1.4586,-1.454,-1.4729,-1.4708,-1.4721,-1.4689,-1.4698,-1.4704,-1.4689,-1.4548,0,0,0,0,0,-1.3774,-1.3852,-1.3946,-1.4038,-1.4074,-1.4146,-1.4197,-1.4229,-1.4311,-1.4344,-1.4415,-1.4497,-1.4587,-1.4646,-1.4734,-1.4855,-1.4881,-1.4905,-1.4911,-1.4916,-1.4926,-1.4994,-1.5006,-1.4879,-1.4879,-1.4879,0,0,-1.3796,-1.3865,-1.3912,-1.4036,-1.4098,-1.4181,-1.4173,-1.4261,-1.4324,-1.4359,-1.4471,-1.4526,-1.4623,-1.4741,-1.4797,-1.479,-1.4966,-1.4923,-1.4926,-1.4935,-1.5002,-1.5014,-1.5024,-1.4883,-1.4883,-1.4882,0,0,-1.3876,-1.3935,-1.4018,-1.4079,-1.4171,-1.4218,-1.4238,-1.4337,-1.4373,-1.4486,-1.4513,-1.4591,-1.4745,-1.4812,-1.4867,-1.4971,-1.499,-1.4999,-1.5031,-1.5097,-1.5107,-1.5116,-1.5154,-1.5166,-1.5008,-1.5008,-1.5008,0,-1.3891,-1.4013,-1.406,-1.4145,-1.42,-1.4231,-1.4317,-1.4376,-1.4494,-1.4533,-1.4521,-1.4714,-1.4781,-1.4916,-1.4941,-1.4984,-1.5011,-1.4986,-1.5101,-1.5111,-1.512,-1.5157,-1.5171,-1.5009,-1.5009,-1.5009,-1.5009,0,-1.4028,-1.4112,-1.4168,-1.4276,-1.4338,-1.4423,-1.4486,-1.4544,-1.457,-1.4619,-1.4735,-1.4816,-1.4921,-1.4955,-1.4984,-1.5095,-1.5087,-1.5087,-1.5068,-1.5132,-1.5167,-1.5182,-1.5009,-1.5009,-1.5009,-1.5009,0,0,-1.4104,-1.4235,-1.4255,-1.4304,-1.4407,-1.4475,-1.4563,-1.4661,-1.471,-1.479,-1.4867,-1.4996,-1.4996,-1.5058,-1.5095,-1.5152,-1.523,-1.5146,-1.515,-1.5159,-1.5358,-1.5356,-1.5371,-1.5242,-1.5245,-1.5247,-1.5349,0,-1.4197,-1.4349,-1.4394,-1.4525,-1.4604,-1.4634,-1.4711,-1.4785,-1.4833,-1.491,-1.4966,-1.5055,-1.5049,-1.5087,-1.5145,-1.5207,-1.527,-1.5201,-1.5317,-1.5321,-1.5292,-1.539,-1.5389,-1.5481,-1.5363,-1.5366,-1.5368,0,-1.4325,-1.4403,-1.454,-1.4631,-1.4667,-1.4734,-1.4828,-1.49,-1.4985,-1.5017,-1.5084,-1.5115,-1.5212,-1.5185,-1.5321,-1.5272,-1.5323,-1.5361,-1.5366,-1.5379,-1.5348,-1.5406,-1.5512,-1.5525,-1.539,-1.5388,-1.5387,0,-1.4367,-1.4507,-1.4606,-1.4647,-1.4757,-1.4804,-1.4853,-1.4935,-1.4991,-1.5075,-1.5112,-1.5207,-1.5259,-1.5334,-1.5391,-1.5366,-1.5521,-1.55,-1.5552,-1.5551,-1.5584,-1.5581,-1.5699,-1.5616,-1.5616,-1.5615,-1.5615,0,-1.4466,-1.4549,-1.4626,-1.4687,-1.4782,-1.4834,-1.4927,-1.4978,-1.505,-1.5125,-1.5159,-1.5229,-1.5299,-1.5379,-1.5425,-1.553,-1.5554,-1.5584,-1.5596,-1.5581,-1.5577,-1.5616,-1.5611,-1.5619,-1.5618,-1.5618,-1.5617,0,-1.4529,-1.4584,-1.4694,-1.4788,-1.4813,-1.4879,-1.4961,-1.5024,-1.5072,-1.5166,-1.5191,-1.527,-1.5366,-1.5429,-1.5554,-1.5585,-1.5699,-1.5709,-1.5669,-1.5674,-1.5722,-1.5717,-1.587,-1.5893,-1.5793,-1.5794,-1.5795,0,-1.4588,-1.4652,-1.4751,-1.4801,-1.4848,-1.4929,-1.4985,-1.5039,-1.5097,-1.5197,-1.5248,-1.5345,-1.5426,-1.5579,-1.5649,-1.5745,-1.5758,-1.5804,-1.5773,-1.5756,-1.5759,-1.5754,-1.5761,-1.581,-1.5811,-1.5811,-1.5812,0,-1.4688,-1.4711,-1.4788,-1.4875,-1.4939,-1.5011,-1.5084,-1.5124,-1.5191,-1.5255,-1.5351,-1.5413,-1.5537,-1.5634,-1.5735,-1.579,-1.5813,-1.5821,-1.5838,-1.5824,-1.5798,-1.5813,-1.5682,-1.5817,-1.5817,-1.5816,-1.5816,-1.5816,-1.4752,-1.4809,-1.4887,-1.4972,-1.5031,-1.5097,-1.5159,-1.5214,-1.5294,-1.5396,-1.5425,-1.5525,-1.561,-1.5747,-1.5803,-1.5885,-1.5881,-1.5905,-1.5912,-1.5917,-1.5917,-1.5784,-1.5904,-1.5904,-1.5904,-1.5904,-1.5904,0,-1.4853,-1.4903,-1.4981,-1.5078,-1.5146,-1.5156,-1.5237,-1.5294,-1.538,-1.5454,-1.5531,-1.5642,-1.5736,-1.5812,-1.591,-1.5961,-1.5974,-1.5985,-1.5982,-1.5994,-1.5916,-1.5891,-1.5972,-1.5972,-1.5972,-1.5972,-1.5972,-1.5972,-1.4913,-1.5011,-1.5043,-1.5171,-1.5223,-1.5317,-1.5363,-1.5425,-1.5484,-1.5605,-1.5681,-1.5728,-1.5805,-1.5908,-1.5995,-1.6016,-1.605,-1.6059,-1.6082,-1.6007,-1.6,-1.5992,-1.5969,-1.6066,-1.6066,-1.6153,-1.6154,-1.6155]},{"header":{"parameterUnit":"m.s-1","parameterCategory":1,"la1":30.2991,"la2":30.254,"lo1":-89.0895,"lo2":-89.0444,"dy":0.0017,"dx":0.0017,"nx":28,"ny":28,"refTime":"2024-09-26T03:00:00:Z","depth":0,"parameterNumber":3,"parameterNumberName":"V-component_of_WINDS"},"data":[0,0,0,0,0,0,0,0,0,0,0,0,0,0,0,0,0,0,0,0,0,0,0,0,0,0,0,0,0,0,0,0,0,0,0,0,0,0,0,0,0,0,0,0,0,0,0,0,0,0,0,0,0,0,0,0,0,0,-4.9593,-4.9592,0,-4.9511,-4.951,-4.9509,-4.9408,-4.9407,-4.9405,-4.9404,-4.9318,-4.9317,-4.9316,0,0,0,0,0,0,0,0,0,0,0,0,0,-4.9659,-4.9658,-4.9593,-4.9592,-4.9591,-4.9511,-4.951,-4.9509,-4.9409,-4.9407,-4.9405,-4.9403,-4.9318,-4.9317,-4.9316,0,0,0,0,0,0,0,0,0,0,0,0,0,-4.9609,-4.9658,-4.9593,-4.9531,-4.9525,-4.9511,-4.951,-4.9509,-4.9409,-4.9407,-4.9404,-4.9402,-4.9319,-4.9317,-4.9316,-4.9356,0,0,-4.9313,-4.9312,0,0,0,0,0,0,0,0,-4.9612,-4.9607,-4.9541,-4.9535,-4.9528,-4.9467,-4.9502,-4.9458,-4.941,-4.9453,-4.9404,-4.9401,-4.9369,-4.9364,-4.9354,-4.9352,-4.9349,-4.9312,-4.9312,-4.9311,-4.9311,0,0,0,0,0,0,0,-4.9616,-4.961,-4.956,-4.954,-4.9532,-4.9507,-4.9497,-4.9493,-4.9425,-4.9449,-4.9441,-4.9433,-4.9365,-4.9355,-4.9351,-4.9347,-4.9312,-4.9311,-4.9311,-4.931,-4.9373,-4.9375,0,0,0,0,0,0,-4.9629,-4.9613,-4.9563,-4.9558,-4.9565,-4.9507,-4.9496,-4.9489,-4.9425,-4.9413,-4.9435,-4.9429,-4.9358,-4.9353,-4.9348,-4.9389,-4.9311,-4.931,-4.9309,-4.937,-4.9373,-4.9376,0,0,0,0,0,0,-4.9631,-4.9625,-4.9566,-4.9583,-4.9574,-4.9509,-4.9502,-4.9489,-4.9478,-4.9415,-4.9402,-4.9437,-4.9356,-4.9349,-4.9355,-4.9384,-4.931,-4.9308,-4.9368,-4.9371,-4.9375,-4.9473,0,0,0,0,0,0,-4.9633,-4.9626,-4.9642,-4.9585,-4.9574,-4.9576,-4.9503,-4.9489,-4.9477,-4.9468,-4.9414,-4.9402,-4.9354,-4.9357,-4.9354,-4.9381,-4.9307,-4.9365,-4.9369,-4.9373,-4.9466,-4.9479,-4.949,0,0,0,0,0,-4.9636,-4.9672,-4.9643,-4.9637,-4.9591,-4.9578,-4.9571,-4.9515,-4.948,-4.9494,-4.9453,-4.9404,-4.9382,-4.9358,-4.9354,-4.9382,-4.9362,-4.9368,-4.9373,-4.9461,-4.9476,-4.949,0,0,0,0,0,0,-4.9734,-4.9664,-4.963,-4.965,-4.9621,-4.9561,-4.9577,-4.9534,-4.9513,-4.9505,-4.9436,-4.9425,-4.9438,-4.941,-4.9385,-4.9416,-4.9365,-4.937,-4.9433,-4.9448,-4.9459,-4.9465,-4.9306,0,0,0,0,0,-4.9758,-4.9754,-4.9692,-4.9716,-4.9703,-4.9643,-4.9635,-4.9594,-4.9561,-4.9547,-4.9507,-4.9475,-4.9461,-4.9453,-4.9437,-4.9462,-4.9448,-4.9479,-4.9491,-4.9501,-4.9505,-4.9514,-4.9527,-4.9393,-4.9393,-4.9393,0,0,-4.9808,-4.9769,-4.977,-4.9734,-4.9707,-4.9702,-4.9633,-4.9632,-4.9627,-4.9547,-4.9549,-4.9519,-4.9479,-4.9494,-4.9499,-4.9471,-4.9539,-4.9508,-4.9516,-4.9515,-4.9521,-4.9534,-4.9545,-4.9397,-4.9396,-4.9396,0,0,-4.9895,-4.9866,-4.9881,-4.9856,-4.9815,-4.9775,-4.9779,-4.9725,-4.9702,-4.9703,-4.9642,-4.9636,-4.9614,-4.9587,-4.9571,-4.9648,-4.9602,-4.9645,-4.9706,-4.9716,-4.9726,-4.9735,-4.9761,-4.9771,-4.965,-4.965,-4.965,0,-4.9961,-4.9953,-4.9895,-4.9897,-4.9882,-4.9811,-4.9824,-4.9802,-4.9758,-4.9749,-4.972,-4.9689,-4.9657,-4.9664,-4.9683,-4.9673,-4.9674,-4.965,-4.973,-4.9738,-4.9745,-4.9769,-4.9779,-4.9655,-4.9655,-4.9654,-4.9654,0,-5.0036,-5.0031,-5.0048,-5.0008,-4.9995,-5.0004,-4.9945,-4.994,-4.9901,-4.9864,-4.9865,-4.9825,-4.9798,-4.9797,-4.9759,-4.9798,-4.9782,-4.9743,-4.9689,-4.9765,-4.9785,-4.9794,-4.9663,-4.9661,-4.966,-4.9658,0,0,-5.0181,-5.0109,-5.0116,-5.0096,-5.0046,-5.0041,-5.0046,-5.002,-5.0016,-4.9988,-4.9989,-4.9972,-4.9934,-4.9916,-4.9874,-4.9883,-4.9944,-4.9841,-4.9839,-4.986,-4.9983,-5.0011,-5.0023,-4.9914,-4.9916,-4.9917,-4.9985,0,-5.0258,-5.0262,-5.0209,-5.0228,-5.0221,-5.0153,-5.0157,-5.0126,-5.0092,-5.0081,-5.0042,-5.003,-4.9983,-4.9971,-4.9977,-4.9936,-4.9968,-4.993,-4.9912,-4.9912,-4.9922,-5.0034,-5.0065,-5.0131,-4.9993,-4.9995,-4.9996,0,-5.0347,-5.0324,-5.0342,-5.0291,-5.0286,-5.0291,-5.0262,-5.0254,-5.0217,-5.0191,-5.0171,-5.0123,-5.0122,-5.0074,-5.0071,-5.0047,-5.0036,-5.0015,-5.0016,-5.001,-4.9957,-5.0029,-5.0151,-5.016,-5.0008,-5.0007,-5.0006,0,-5.0448,-5.0423,-5.043,-5.0415,-5.0356,-5.036,-5.0336,-5.0297,-5.0285,-5.026,-5.0251,-5.0227,-5.0213,-5.0194,-5.0141,-5.0111,-5.0143,-5.0091,-5.012,-5.0121,-5.0128,-5.0127,-5.0247,-5.0126,-5.0125,-5.0125,-5.0125,0,-5.0538,-5.0551,-5.0474,-5.0478,-5.0491,-5.043,-5.0443,-5.0412,-5.0378,-5.0373,-5.0314,-5.0311,-5.0241,-5.023,-5.0188,-5.0191,-5.0186,-5.0163,-5.0151,-5.0167,-5.017,-5.0158,-5.0151,-5.0128,-5.0127,-5.0127,-5.0126,0,-5.0652,-5.0602,-5.0604,-5.0548,-5.0535,-5.0546,-5.0497,-5.0498,-5.046,-5.0455,-5.045,-5.0391,-5.0374,-5.032,-5.029,-5.0261,-5.0276,-5.0255,-5.0288,-5.028,-5.0312,-5.0309,-5.0426,-5.0437,-5.0311,-5.0312,-5.0314,0,-5.0711,-5.0719,-5.0665,-5.0658,-5.0636,-5.0626,-5.0613,-5.0554,-5.0543,-5.0502,-5.0507,-5.0486,-5.0466,-5.0443,-5.0395,-5.0372,-5.0348,-5.0391,-5.0344,-5.0359,-5.0346,-5.0345,-5.0344,-5.0401,-5.0402,-5.0404,-5.0405,0,-5.082,-5.0795,-5.078,-5.0756,-5.0742,-5.072,-5.0694,-5.0692,-5.0626,-5.0616,-5.0599,-5.0584,-5.0553,-5.0532,-5.0501,-5.0474,-5.0428,-5.042,-5.0425,-5.044,-5.0458,-5.0446,-5.0313,-5.0417,-5.0416,-5.0415,-5.0414,-5.0414,-5.0907,-5.091,-5.0872,-5.0856,-5.0831,-5.0809,-5.0806,-5.0768,-5.0754,-5.0724,-5.0691,-5.0677,-5.0639,-5.0592,-5.0569,-5.0556,-5.0531,-5.0539,-5.054,-5.0543,-5.0549,-5.0463,-5.055,-5.055,-5.055,-5.0549,-5.0549,0,-5.101,-5.0983,-5.0969,-5.0935,-5.0923,-5.0883,-5.0852,-5.0844,-5.0833,-5.0802,-5.0784,-5.0763,-5.0743,-5.0695,-5.0669,-5.0668,-5.0646,-5.0663,-5.0661,-5.0655,-5.0574,-5.0571,-5.0681,-5.0681,-5.0681,-5.0681,-5.0681,-5.0681,-5.1063,-5.1066,-5.1037,-5.1027,-5.0998,-5.0986,-5.0971,-5.095,-5.0924,-5.0905,-5.0888,-5.0857,-5.0818,-5.0789,-5.0768,-5.0754,-5.0746,-5.077,-5.0749,-5.0674,-5.0661,-5.0649,-5.0646,-5.0769,-5.077,-5.083,-5.0831,-5.0831]}]]